Litchfield, MN

4:07 PM CDT on May 23, 2018 (GMT -0500)
Litchfield Municipal

Weather History for KLJF - December, 2013

Change the Weather History Date:

Tuesday, December 3, 2013

  Actual Average Record
Temperature  
Mean Temperature 34 °F -  
Max Temperature 35 °F 28 °F 60 °F (1998)
Min Temperature 32 °F 12 °F -23 °F (1985)
Degree Days  
Heating Degree Days 31    
Moisture  
Dew Point 35 °F    
Average Humidity 100    
Maximum Humidity 100    
Minimum Humidity 100    
Precipitation  
Precipitation 0.00 in - - ()
Sea Level Pressure  
Sea Level Pressure 29.67 in    
Wind  
Wind Speed 3 mph (NE)    
Max Wind Speed 13 mph    
Max Gust Speed 17 mph    
Visibility 2 miles    
Events Fog    
Averages and records for this station are not official NWS values.
T = Trace of Precipitation, MM = Missing Value Source: NWS Daily Summary

Daily Weather History Graph

Daily Weather History Graph

Search for Another Location

Airport or City:

Astronomy

Dec. 03, 2013 Rise Set
Actual Time 7:38 AM CST 4:36 PM CST
Civil Twilight 7:05 AM CST 5:10 PM CST
Nautical Twilight 6:28 AM CST 5:47 PM CST
Astronomical Twilight 5:53 AM CST 6:22 PM CST
Moon 8:07 AM CST (12/3) 5:42 PM CST (12/3)
Length of Visible Light 10h 04m
Length of Day
8h 57m
New Moon, 1% of the Moon is Illuminated
Dec 3
New Moon
Dec 9
First Quarter
Dec 17
Full
Dec 25
Last Quarter
Jan 1
New

Hourly Weather History & Observations

Time (CST) Temp. Windchill Dew Point Humidity Pressure Visibility Wind Dir Wind Speed Gust Speed Precip Events Conditions
12:13 AM 35.6 °F 32.8 °F 35.6 °F 100% 29.56 in 1.0 mi East 3.5 mph - N/A   Mist
12:33 AM 35.6 °F - 35.6 °F 100% 29.56 in 1.2 mi Calm Calm - N/A   Overcast
12:52 AM 35.6 °F - 35.6 °F 100% 29.56 in 1.2 mi Calm Calm - N/A   Overcast
1:13 AM 35.6 °F - 35.6 °F 100% 29.57 in 1.0 mi Calm Calm - N/A   Mist
1:33 AM 35.6 °F - 35.6 °F 100% 29.57 in 0.8 mi Calm Calm - N/A   Mist
1:53 AM 35.6 °F - 35.6 °F 100% 29.58 in 1.0 mi Calm Calm - N/A   Mist
2:12 AM 33.8 °F - 33.8 °F 100% 29.58 in 1.0 mi Calm Calm - N/A   Mist
2:33 AM 35.6 °F - 35.6 °F 100% 29.58 in 0.8 mi Calm Calm - N/A   Overcast
2:53 AM 35.6 °F - 35.6 °F 100% 29.58 in 0.8 mi Calm Calm - N/A   Mist
3:12 AM 35.6 °F - 35.6 °F 100% 29.59 in 0.5 mi Calm Calm - N/A Fog Fog
3:33 AM 33.8 °F - 33.8 °F 100% 29.58 in 0.2 mi Calm Calm - N/A Fog Fog
3:52 AM 35.6 °F - 35.6 °F 100% 29.59 in 0.2 mi Calm Calm - N/A Fog Fog
4:13 AM 33.8 °F - 33.8 °F 100% 29.59 in 0.2 mi Calm Calm - N/A Fog Fog
4:33 AM 35.6 °F - 35.6 °F 100% 29.60 in 0.2 mi Calm Calm - N/A Fog Fog
4:52 AM 33.8 °F 30.8 °F 33.8 °F 100% 29.60 in 0.2 mi North 3.5 mph - N/A Fog Fog
5:13 AM 33.8 °F 29.6 °F 33.8 °F 100% 29.59 in 0.2 mi NNE 4.6 mph - N/A Fog Fog
5:33 AM 33.8 °F - 33.8 °F 100% 29.60 in 0.2 mi Calm Calm - N/A Fog Fog
5:52 AM 33.8 °F - 33.8 °F 100% 29.61 in 0.2 mi Calm Calm - N/A Fog Fog
6:13 AM 33.8 °F - 33.8 °F 100% 29.61 in 0.2 mi Calm Calm - N/A Fog Fog
6:33 AM 33.8 °F 30.8 °F 33.8 °F 100% 29.62 in 0.2 mi North 3.5 mph - N/A Fog Fog
6:52 AM 33.8 °F 30.8 °F 33.8 °F 100% 29.61 in 0.2 mi NE 3.5 mph - N/A Fog Fog
7:13 AM 33.8 °F - 33.8 °F 100% 29.63 in 0.2 mi Calm Calm - N/A   Overcast
7:33 AM 33.8 °F - 33.8 °F 100% 29.63 in 0.2 mi Calm Calm - N/A   Unknown
7:52 AM 33.8 °F - 33.8 °F 100% 29.63 in 0.2 mi Calm Calm - N/A   Unknown
8:13 AM 33.8 °F - 33.8 °F 100% 29.64 in 0.2 mi Calm Calm - N/A   Overcast
8:33 AM 33.8 °F - 33.8 °F 100% 29.64 in 0.2 mi Calm Calm - N/A   Overcast
8:52 AM 33.8 °F - 33.8 °F 100% 29.65 in 0.2 mi Calm Calm - N/A   Overcast
9:13 AM 33.8 °F - 33.8 °F 100% 29.66 in 0.2 mi Calm Calm - N/A   Overcast
9:33 AM 35.6 °F - 35.6 °F 100% 29.66 in 0.2 mi Calm Calm - N/A   Overcast
9:52 AM 35.6 °F 32.8 °F 35.6 °F 100% 29.67 in 0.2 mi NE 3.5 mph - N/A   Overcast
10:13 AM 35.6 °F - 35.6 °F 100% 29.68 in 0.2 mi Calm Calm - N/A   Overcast
10:33 AM 35.6 °F 32.8 °F 35.6 °F 100% 29.69 in 0.2 mi NE 3.5 mph - N/A   Overcast
10:53 AM 35.6 °F 30.7 °F 35.6 °F 100% 29.68 in 0.2 mi NNE 5.8 mph - N/A   Overcast
11:12 AM 35.6 °F 30.7 °F 35.6 °F 100% 29.68 in 0.2 mi NNE 5.8 mph - N/A   Overcast
11:33 AM 35.6 °F 30.7 °F 35.6 °F 100% 29.68 in 0.2 mi NE 5.8 mph - N/A   Overcast
11:52 AM 35.6 °F 29.9 °F 35.6 °F 100% 29.68 in 0.2 mi NE 6.9 mph - N/A   Overcast
12:13 PM 35.6 °F 29.9 °F 35.6 °F 100% 29.68 in 0.2 mi NE 6.9 mph - N/A   Light Drizzle
12:33 PM 35.6 °F - 35.6 °F 100% 29.68 in 0.2 mi Calm Calm - N/A   Light Drizzle
12:52 PM 35.6 °F 29.9 °F 35.6 °F 100% 29.67 in 0.2 mi NNE 6.9 mph - N/A Fog Fog
1:13 PM 35.6 °F 30.7 °F 35.6 °F 100% 29.67 in 0.2 mi NE 5.8 mph - N/A Fog Fog
1:33 PM 35.6 °F 29.9 °F 35.6 °F 100% 29.67 in 0.2 mi NE 6.9 mph - N/A Fog Fog
1:52 PM 35.6 °F 29.9 °F 35.6 °F 100% 29.67 in 0.2 mi NE 6.9 mph - N/A Fog Fog
2:13 PM 35.6 °F 29.9 °F 35.6 °F 100% 29.66 in 0.2 mi NE 6.9 mph - N/A Fog Fog
2:33 PM 35.6 °F 28.6 °F 35.6 °F 100% 29.67 in 0.2 mi NE 9.2 mph - N/A Fog Fog
2:52 PM 35.6 °F 29.9 °F 35.6 °F 100% 29.68 in 0.2 mi NE 6.9 mph - N/A Fog Fog
3:13 PM 35.6 °F 28.6 °F 35.6 °F 100% 29.67 in 0.2 mi NE 9.2 mph - N/A Fog Fog
3:33 PM 33.8 °F 28.6 °F 33.8 °F 100% 29.69 in 0.2 mi ENE 5.8 mph - N/A Fog Fog
3:52 PM 35.6 °F 30.7 °F 35.6 °F 100% 29.69 in 0.5 mi ENE 5.8 mph - N/A Fog Fog
4:13 PM 35.6 °F 30.7 °F 35.6 °F 100% 29.69 in 1.0 mi ENE 5.8 mph - N/A   Overcast
4:33 PM 33.8 °F 30.8 °F 33.8 °F 100% 29.71 in 1.0 mi ENE 3.5 mph - N/A   Overcast
4:52 PM 33.8 °F 29.6 °F 33.8 °F 100% 29.72 in 1.2 mi NNE 4.6 mph - N/A   Overcast
5:13 PM 33.8 °F 27.7 °F 33.8 °F 100% 29.72 in 1.8 mi NE 6.9 mph - N/A   Overcast
5:33 PM 33.8 °F 27.7 °F 33.8 °F 100% 29.73 in 2.5 mi NE 6.9 mph - N/A   Overcast
5:52 PM 33.8 °F 28.6 °F 33.8 °F 100% 29.73 in 3.0 mi NE 5.8 mph - N/A   Overcast
6:13 PM 33.8 °F 27.7 °F 33.8 °F 100% 29.74 in 5.0 mi NE 6.9 mph - N/A   Overcast
6:33 PM 33.8 °F 28.6 °F 33.8 °F 100% 29.75 in 4.0 mi NE 5.8 mph - N/A   Overcast
6:52 PM 33.8 °F 27.7 °F 33.8 °F 100% 29.75 in 3.0 mi NE 6.9 mph - N/A   Light Drizzle
7:13 PM 33.8 °F 29.6 °F 33.8 °F 100% 29.75 in 3.0 mi ENE 4.6 mph - N/A   Light Drizzle
7:32 PM 33.8 °F 27.7 °F 33.8 °F 100% 29.75 in 3.0 mi ENE 6.9 mph - N/A   Light Drizzle
7:53 PM 33.8 °F 27.7 °F 33.8 °F 100% 29.74 in 3.0 mi ENE 6.9 mph - N/A   Overcast
8:12 PM 33.8 °F 24.8 °F 33.8 °F 100% 29.69 in 2.5 mi East 12.7 mph 17.3 mph N/A   Overcast
8:33 PM 33.8 °F 24.8 °F 33.8 °F 100% 29.74 in 3.0 mi East 12.7 mph - N/A   Overcast
8:53 PM 33.8 °F 25.8 °F 33.8 °F 100% 29.76 in 4.0 mi ENE 10.4 mph - N/A   Overcast
9:12 PM 33.8 °F 27.0 °F 33.8 °F 100% 29.76 in 4.0 mi ENE 8.1 mph - N/A   Overcast
9:33 PM 33.8 °F 25.8 °F 33.8 °F 100% 29.75 in 4.0 mi East 10.4 mph - N/A   Overcast
9:53 PM 33.8 °F 27.0 °F 33.8 °F 100% 29.77 in 4.0 mi ENE 8.1 mph - N/A   Overcast
10:12 PM 33.8 °F 25.8 °F 33.8 °F 100% 29.76 in 5.0 mi ENE 10.4 mph - N/A   Overcast
10:33 PM 33.8 °F 27.0 °F 33.8 °F 100% 29.76 in 5.0 mi ENE 8.1 mph - N/A   Overcast
10:52 PM 33.8 °F 27.0 °F 33.8 °F 100% 29.75 in 5.0 mi ENE 8.1 mph - N/A   Overcast
11:13 PM 33.8 °F 27.0 °F 33.8 °F 100% 29.75 in 5.0 mi ENE 8.1 mph - N/A   Overcast
11:33 PM 33.8 °F 26.4 °F 33.8 °F 100% 29.76 in 7.0 mi ENE 9.2 mph - N/A   Overcast
11:52 PM 32.0 °F 24.8 °F 32.0 °F 100% 29.76 in 10.0 mi ENE 8.1 mph - N/A   Overcast